Regional Weather Roundup
Issued by NWS

Home | Current Version | Previous Version | Graphics & Text | Print | Product List | Glossary Off
Versions: 1 2 3 4 5 6 7 8 9 10 11 12 13 14 15 16 17 18 19 20 21 22 23 24 25 26 27 28 29 30 31 32 33 34 35 36 37 38 39 40 41 42 43 44 45 46 47 48 49 50

000
ASUS43 KMKX 170059
RWRWI

WISCONSIN REGIONAL WEATHER ROUNDUP
NATIONAL WEATHER SERVICE MILWAUKEE/SULLIVAN WI
700 PM CST SAT DEC 16 2017

NOTE: "FAIR" INDICATES FEW OR NO CLOUDS BELOW 12,000 FEET WITH NO
SIGNIFICANT WEATHER AND/OR OBSTRUCTIONS TO VISIBILITY.

WIZ001-002-006>008-014>016-023>028-170200-
NORTHWEST WISCONSIN

CITY           SKY/WX    TMP DP  RH WIND       PRES   REMARKS
SUPERIOR ARPT  CLOUDY    22  12  66 CALM      30.10R
ASHLAND        CLOUDY    21  13  71 E3        30.10R
HAYWARD        CLOUDY    20  12  71 CALM      30.07R
SIREN          CLOUDY    23  16  75 NE3       30.07R
CUMBERLAND     CLOUDY    19  14  79 NE3       30.03S
RICE LAKE      CLOUDY    22  15  76 CALM      30.05S
CHETEK         CLOUDY    22  16  77 E5        30.05S WCI  15
LADYSMITH      CLOUDY    22  15  74 E5        30.06S WCI  16
EAU CLAIRE     CLOUDY    21  16  81 E6        30.05R WCI  13
MENOMONIE      PTCLDY    21  17  83 E6        30.06R WCI  13
NEW RICHMOND   PTCLDY    21  15  76 CALM      30.05R
OSCEOLA        PTCLDY    24  18  77 CALM      30.08R
$$

WIZ003>005-009-010-017-018-170200-
NORTH CENTRAL WISCONSIN

CITY           SKY/WX    TMP DP  RH WIND       PRES   REMARKS
MANITOWISH WTR CLOUDY    18   9  70 CALM      30.05R
ARBOR VITAE    CLOUDY    19  12  74 SE6       30.05R WCI  11
WOODRUFF       CLOUDY    19  12  74 SE6       30.05R WCI  11
RHINELANDER    CLOUDY    19  14  81 SE8       30.07R WCI   9
EAGLE RIVER    CLOUDY    18  10  68 SE5       30.05S WCI  11
LAND O LAKES   CLOUDY    18  11  74 E3        30.07R
PHILLIPS       CLOUDY    18  11  76 SE6       30.04R WCI   9
TOMAHAWK       CLOUDY    18  13  81 CALM      30.06R
MEDFORD        CLOUDY    20  15  79 E8        30.04R WCI  11
MERRILL        CLOUDY    21  16  79 SE5       30.07S WCI  15
$$

WIZ029-030-035-036-043>047-170200-
CENTRAL WISCONSIN

CITY           SKY/WX    TMP DP  RH WIND       PRES   REMARKS
WAUSAU         CLOUDY    21  17  84 E8        30.07R WCI  11
MOSINEE        CLOUDY    21  18  86 E7        30.08R WCI  13
MARSHFIELD     CLOUDY    22  18  85 E9        30.05R WCI  12
STEVENS POINT  CLOUDY    21  17  83 E9        30.09R WCI  11
WAUPACA        CLOUDY    26  20  76 NE6       30.12R WCI  20
WAUTOMA        CLOUDY    25  20  81 NE9       30.09R WCI  15
WISC RAPIDS    CLOUDY    24  16  71 E10       30.09R WCI  14
CAMP DOUGLAS   CLOUDY    26  23  90 E6        30.07R WCI  19
$$

WIZ011>013-019>022-031-037>040-048>050-170200-
NORTHEAST WISCONSIN

CITY           SKY/WX    TMP DP  RH WIND       PRES   REMARKS
ANTIGO         CLOUDY    19  16  91 E8        30.08R WCI   8
SHAWANO        CLOUDY    24  19  80 NE5       30.12R WCI  18
OCONTO         CLOUDY    23  19  85 CALM      30.14R
STURGEON BAY   CLOUDY    27  22  81 E5        30.14R WCI  22
GREEN BAY      CLOUDY    26  20  77 N7        30.12R WCI  18
MANITOWOC      CLOUDY    28  22  78 NE3       30.11R
APPLETON       CLOUDY    25  18  74 NE7       30.08R WCI  17
CLINTONVILLE   CLOUDY    23  18  80 NE6       30.11S WCI  16
OSHKOSH        CLOUDY    27  22  81 NE9       30.09R WCI  18
$$

WIZ032>034-041-042-053>061-170200-
SOUTHWEST WISCONSIN

CITY           SKY/WX    TMP DP  RH WIND       PRES   REMARKS
LA CROSSE      PTCLDY    28  22  78 E5        30.05R WCI  23
SPARTA         CLOUDY    27  25  93 NE9       30.07R WCI  17
VIROQUA        CLOUDY    27  27 100 CALM      30.00R
BOSCOBEL       CLOUDY    31  25  78 CALM      30.04R
PRAIRIE DU CHI PTCLDY    34  25  69 E5        30.01R WCI  29
PLATTEVILLE    CLEAR     33  28  83 NE10      29.99R WCI  24
$$

WIZ056-057-062-063-064-067-068-170200-
SOUTH CENTRAL WISCONSIN

CITY           SKY/WX    TMP DP  RH WIND       PRES   REMARKS
REEDSBURG      CLOUDY    28  27  99 NE6       30.05R WCI  21
BARABOO/DELLS  CLOUDY    27  24  91 NE8       30.04R WCI  18
LONE ROCK      NOT AVBL
MINERAL POINT  CLEAR     32  32 100 E8        29.99R WCI  25
MADISON        CLOUDY    32  29  88 E8        30.05R WCI  25
MIDDLETON      CLOUDY    33  31  91 E7        30.04R WCI  27
WATERTOWN      CLOUDY    31  31 100 NE7       30.04R WCI  24
MONROE         CLEAR     32  30  93 NE10      30.00R WCI  24
JANESVILLE     CLEAR     34  32  93 NE8       30.01R WCI  27
$$

WIZ051-052-058>065-066-070>072-170200-
SOUTHEAST WISCONSIN

CITY           SKY/WX    TMP DP  RH WIND       PRES   REMARKS
MILWAUKEE      PTCLDY    36  33  89 NE13      30.05R WCI  27
WAUKESHA       CLOUDY    30  28  93 NE8       30.05R WCI  23
MILWAUKEE/TIMM CLOUDY    34  28  80 NE7       30.06R WCI  28
RACINE         CLEAR     32  31  96 N6        30.05R WCI  26
BURLINGTON     PTCLDY    46  46 100 CALM      30.03R FOG
KENOSHA        CLEAR     32  25  75 N5        30.03R WCI  27
FOND DU LAC    CLOUDY    29  22  75 NE10      30.09R WCI  20
SHEBOYGAN      CLOUDY    30  26  85 NE9       30.09R WCI  22
WEST BEND      CLOUDY    30  28  93 NE8       30.06R WCI  23
JUNEAU         CLOUDY    29  24  83 NE7       30.06R WCI  22
$$

LSZ147-162-170200-
LAKE SUPERIOR

STATION/POSITION TIME  TEMP    WIND        PRES    WAVE
                       AIR SEA DIR/SP/G            HT/PER
                 (UTC) (F)     (DEG/KT/KT) (MB)    (FT/S)
DEVILS ISLAND    0000   25     150/  7/  9 1020.2R
SAXON HARBOR     0040   22                 1019.0S
$$

LMZ867-665-643>646-170200-
LAKE MICHIGAN

STATION/POSITION TIME  TEMP    WIND        PRES    WAVE
                       AIR SEA DIR/SP/G            HT/PER
                 (UTC) (F)     (DEG/KT/KT) (MB)    (FT/S)
NORTHPORT PIER   0040   26      70/ 11/ 17 1021.0R
KEWAUNEE LAKESHO 0024   30      80/  7/ 10 1018.9
SHEBOYGAN LAKESH 0000   32      70/ 12/ 13 1019.2R
PORT WASHINGTON  0040   35      70/  8/  9 1019.3R
MILWAUKEE LAKESH 0030   36      60/ 14/ 15   N/A
KENOSHA   LAKESH 0000   37      40/  5/  5 1016.6
$$

TC  - TEMPERATURE IN CELSIUS
VSB - VISIBILITY IN STATUTE MILES
WCI - WIND CHILL INDEX
HX  - HEAT INDEX





USA.gov is the U.S. government's official web portal to all federal, state and local government web resources and services.